Voltar ao catálogo

COSMOS 1447

AtivoMilitarPO
NORAD 13916·PAYLOAD·🇷🇺 Russia

Lançado Mar 24, 1983 de Plesetsk Cosmodrome

Loading…

Próximas Passagens (próximas 24 horas)

TLE

AtualizadoSource: Space-Track

Época: Sep 14, 2026, 20:51 UTC

1 13916U 83021A   26257.86916784  .00000054  00000-0  41016-4 0  9990
2 13916  82.9429 292.9879 0036462 301.8193 240.3521 13.75359092181403

Acompanhe COSMOS 1447 em tempo real com AllMySat

Download on the App Store